Weather in Reading

United States     40°21′52″N   75°55′34″W
temp.,
°C
wind,
m/s
gust,
m/s
humid.,
%
clouds,
%
prec.,
mm/h
press.,
hPa
HPBL,
m
23 may, mon
mon2323:00+18nw379659 1.2 1019290
02:00+13nnw61288100 1.2 1021499
05:00+12nnw5128398 0.0 1022503
08:00+13n51171100 0.0 1024570
11:00+17n465486 0.0 1024981
14:00+21n3446100 0.0 10221280
17:00+21nne2348100 0.0 10211356
20:00+18w2258100 0.0 102324
24 may, tue
tue2423:00+15w2270100 0.1 102230
02:00+15n0075100 0.1 102313
05:00+14ese1181100 0.0 102352
08:00+15se2583100 0.0 1024305
11:00+15ese3675100 0.0 1025632
14:00+15se3673100 0.0 1025751
17:00+14ese2674100 0.1 1025435
20:00+13ese1273100 0.1 1025102
25 may, wed
wed2523:00+13e117199 0.0 102653
02:00+13ene2365100 0.0 1025140
05:00+12ene2765100 0.0 1026311
08:00+13ene3874100 0.0 1027368
11:00+15ese466789 0.0 1027638
14:00+18se3558100 0.0 1027949
17:00+17se455890 0.0 1026759
20:00+15ese2568100 0.0 1026172
26 may, thu
thu2623:00+14se3867100 0.0 1026415
02:00+10se257995 0.0 1026127
05:00+12se1679100 0.0 1025259
08:00+13ese2685100 0.0 1025259
11:00+13e2590100 0.1 1024267
14:00+15ese2591100 0.1 1022400
17:00+16ese2494100 0.0 1020391
20:00+16ese1197100 0.1 101921
27 may, fri
fri2723:00+15ese119989 0.1 101822
02:00+14sse1198100 0.1 101711
05:00+16sse1199100 0.1 101526
08:00+18ssw21099100 0.6 1015409
11:00+24sw61075100 0.0 1015992
14:00+25sw697292 0.2 10131344
17:00+24ssw5887100 2.8 1012896
20:00+20sw3995100 6.3 1012335